QPF
0.05 0.06 0.05 0.05 0.04 0.04 0.05 0.06 0.07 0.06 0.05 0.04 0.02 0.01 0.02 0.02 0.02 0.02 0.02 0.03 0.02 0.02 0.02 0.02 0.02 0.02 0.02 0.03 0.03 0.04 0.04 0.05 0.07 0.09 0.14 0.19 0.23 0.24
0.05 0.05 0.05 0.03 0.03 0.04 0.05 0.06 0.06 0.06 0.04 0.03 0.02 0.02 0.03 0.02 0.02 0.02 0.02 0.02 0.03 0.04 0.04 0.04 0.03 0.02 0.02 0.02 0.03 0.03 0.03 0.05 0.05 0.06 0.09 0.13 0.17 0.20
0.03 0.04 0.05 0.04 0.04 0.05 0.04 0.04 0.04 0.04 0.04 0.03 0.02 0.03 0.02 0.02 0.02 0.02 0.02 0.02 0.03 0.03 0.02 0.02 0.02 0.02 0.02 0.02 0.02 0.02 0.03 0.04 0.04 0.04 0.05 0.08 0.10 0.13
0.03 0.03 0.04 0.04 0.05 0.04 0.04 0.04 0.04 0.04 0.04 0.04 0.03 0.03 0.02 0.03 0.03 0.02 0.02 0.02 0.03 0.02 0.02 0.02 0.01 0.01 0.01 0.02 0.02 0.02 0.03 0.04 0.04 0.04 0.04 0.05 0.06 0.08
0.02 0.02 0.02 0.03 0.03 0.03 0.02 0.02 0.03 0.03 0.04 0.03 0.03 0.03 0.03 0.05 0.04 0.03 0.02 0.02 0.02 0.02 0.01 0.01 0.01 0.01 0.01 0.01 0.02 0.02 0.03 0.04 0.04 0.04 0.04 0.06 0.07 0.06
0.01 0.02 0.02 0.02 0.02 0.02 0.02 0.02 0.02 0.02 0.03 0.03 0.03 0.02 0.03 0.04 0.04 0.05 0.05 0.04 0.03 0.02 0.02 0.02 0.02 0.01 0.01 0.02 0.03 0.03 0.04 0.04 0.05 0.04 0.04 0.05 0.06 0.07
0.02 0.02 0.02 0.02 0.02 0.01 0.01 0.01 0.02 0.02 0.02 0.02 0.02 0.02 0.03 0.03 0.03 0.03 0.04 0.04 0.04 0.03 0.03 0.03 0.02 0.02 0.02 0.02 0.03 0.03 0.03 0.04 0.05 0.06 0.06 0.06 0.05 0.04
0.03 0.02 0.01 0.01 0.01 0.01 0.01 0.01 0.02 0.02 0.02 0.02 0.02 0.02 0.02 0.02 0.02 0.03 0.04 0.04 0.03 0.03 0.02 0.03 0.02 0.02 0.02 0.02 0.02 0.02 0.02 0.03 0.03 0.04 0.05 0.06 0.05 0.05
0.03 0.02 0.01 0.01 0.01 0.01 0.01 0.01 0.02 0.02 0.03 0.03 0.03 0.02 0.02 0.02 0.02 0.02 0.03 0.03 0.03 0.03 0.02 0.02 0.01 0.01 0.01 0.02 0.02 0.02 0.02 0.03 0.03 0.03 0.03 0.03 0.05 0.06
0.03 0.02 0.02 0.01 0.00 0.01 0.01 0.02 0.02 0.02 0.03 0.03 0.04 0.04 0.04 0.03 0.02 0.02 0.02 0.02 0.02 0.02 0.02 0.02 0.01 0.01 0.01 0.01 0.01 0.01 0.02 0.02 0.02 0.02 0.03 0.02 0.02 0.04
0.03 0.03 0.03 0.02 0.02 0.02 0.02 0.03 0.03 0.03 0.02 0.02 0.03 0.03 0.04 0.04 0.03 0.03 0.02 0.02 0.01 0.01 0.01 0.01 0.02 0.01 0.01 0.01 0.00 0.01 0.01 0.01 0.01 0.01 0.00 0.00 0.01 0.01
0.02 0.02 0.03 0.03 0.03 0.04 0.03 0.03 0.03 0.03 0.04 0.04 0.04 0.04 0.04 0.04 0.05 0.04 0.03 0.03 0.02 0.02 0.01 0.01 0.02 0.02 0.01 0.01 0.00 0.00 0.00 0.00 0.00 0.00 0.01 0.00 0.01 0.01
0.03 0.03 0.03 0.03 0.03 0.04 0.04 0.03 0.01 0.03 0.04 0.04 0.04 0.04 0.05 0.04 0.04 0.03 0.03 0.03 0.03 0.03 0.03 0.03 0.03 0.02 0.02 0.01 0.01 0.00 0.00 0.00 0.01 0.01 0.01 0.01 0.02 0.03
0.03 0.04 0.05 0.06 0.06 0.06 0.05 0.04 0.04 0.05 0.04 0.03 0.02 0.03 0.04 0.04 0.04 0.03 0.03 0.03 0.04 0.04 0.04 0.04 0.04 0.03 0.02 0.02 0.01 0.00 0.01 0.01 0.01 0.01 0.01 0.02 0.04 0.05
0.03 0.04 0.05 0.05 0.05 0.05 0.04 0.04 0.04 0.05 0.04 0.04 0.03 0.03 0.04 0.04 0.04 0.03 0.04 0.04 0.03 0.03 0.03 0.03 0.03 0.04 0.04 0.03 0.02 0.01 0.01 0.01 0.01 0.01 0.02 0.03 0.04 0.06
0.04 0.04 0.05 0.05 0.04 0.04 0.03 0.03 0.03 0.03 0.03 0.02 0.02 0.02 0.03 0.03 0.03 0.04 0.04 0.04 0.03 0.03 0.03 0.04 0.04 0.04 0.04 0.04 0.03 0.02 0.02 0.01 0.01 0.02 0.04 0.04 0.04 0.06
0.03 0.03 0.04 0.04 0.03 0.02 0.02 0.01 0.02 0.02 0.02 0.02 0.02 0.03 0.03 0.03 0.03 0.04 0.05 0.05 0.05 0.04 0.04 0.05 0.05 0.04 0.04 0.04 0.04 0.03 0.03 0.02 0.01 0.02 0.04 0.05 0.05 0.06
0.03 0.03 0.04 0.04 0.03 0.02 0.01 0.01 0.01 0.02 0.02 0.02 0.03 0.04 0.05 0.06 0.06 0.06 0.06 0.07 0.07 0.07 0.08 0.08 0.07 0.06 0.06 0.05 0.04 0.04 0.04 0.04 0.03 0.03 0.04 0.05 0.05 0.06
0.02 0.03 0.04 0.05 0.04 0.03 0.02 0.02 0.02 0.02 0.02 0.02 0.03 0.03 0.03 0.04 0.04 0.05 0.06 0.06 0.07 0.07 0.07 0.07 0.07 0.08 0.08 0.06 0.04 0.04 0.04 0.04 0.05 0.04 0.03 0.04 0.04 0.05
0.02 0.02 0.02 0.03 0.03 0.03 0.03 0.02 0.02 0.02 0.02 0.02 0.03 0.03 0.03 0.04 0.04 0.05 0.05 0.05 0.06 0.06 0.06 0.06 0.06 0.07 0.06 0.06 0.04 0.04 0.04 0.04 0.05 0.05 0.04 0.04 0.05 0.05
0.01 0.02 0.02 0.03 0.03 0.03 0.03 0.03 0.03 0.02 0.02 0.03 0.02 0.02 0.03 0.04 0.05 0.05 0.06 0.06 0.07 0.07 0.06 0.06 0.05 0.06 0.06 0.06 0.05 0.04 0.04 0.04 0.03 0.04 0.05 0.05 0.04 0.04
0.01 0.02 0.02 0.02 0.02 0.02 0.02 0.02 0.02 0.02 0.02 0.02 0.02 0.02 0.03 0.04 0.04 0.04 0.05 0.06 0.06 0.06 0.06 0.05 0.05 0.05 0.05 0.05 0.05 0.04 0.04 0.04 0.04 0.03 0.03 0.03 0.03 0.03
0.01 0.01 0.01 0.01 0.01 0.02 0.01 0.01 0.01 0.01 0.01 0.01 0.01 0.02 0.02 0.04 0.05 0.05 0.05 0.05 0.05 0.05 0.05 0.04 0.04 0.04 0.04 0.04 0.05 0.05 0.04 0.04 0.04 0.04 0.04 0.04 0.03 0.02
MSLP
1015.36 1015.50 1015.68 1015.87 1016.05 1016.18 1016.25 1016.25 1016.15 1015.99 1015.78 1015.56 1015.36 1015.23 1015.18 1015.23 1015.37 1015.60 1015.89 1016.20 1016.51 1016.80 1017.05 1017.25 1017.41 1017.53 1017.61 1017.67 1017.69 1017.69 1017.65 1017.55 1017.41 1017.20 1016.94 1016.65 1016.34 1016.04
1014.58 1014.72 1014.89 1015.09 1015.29 1015.45 1015.56 1015.60 1015.56 1015.45 1015.30 1015.13 1014.99 1014.90 1014.90 1014.99 1015.16 1015.42 1015.72 1016.04 1016.35 1016.64 1016.88 1017.07 1017.21 1017.32 1017.40 1017.45 1017.49 1017.51 1017.50 1017.44 1017.34 1017.19 1016.98 1016.72 1016.44 1016.16
1013.79 1013.91 1014.07 1014.26 1014.46 1014.63 1014.77 1014.84 1014.84 1014.79 1014.70 1014.60 1014.53 1014.50 1014.56 1014.69 1014.90 1015.18 1015.49 1015.82 1016.12 1016.40 1016.62 1016.79 1016.92 1017.02 1017.10 1017.16 1017.22 1017.27 1017.31 1017.30 1017.26 1017.16 1017.01 1016.81 1016.57 1016.32
1013.06 1013.15 1013.29 1013.46 1013.64 1013.81 1013.95 1014.04 1014.08 1014.07 1014.04 1014.01 1014.00 1014.04 1014.15 1014.34 1014.58 1014.88 1015.20 1015.53 1015.82 1016.07 1016.28 1016.44 1016.56 1016.65 1016.73 1016.82 1016.91 1017.00 1017.08 1017.13 1017.15 1017.11 1017.02 1016.87 1016.67 1016.45
1012.44 1012.50 1012.60 1012.74 1012.89 1013.04 1013.16 1013.26 1013.31 1013.34 1013.35 1013.37 1013.42 1013.51 1013.67 1013.90 1014.17 1014.49 1014.81 1015.13 1015.42 1015.66 1015.85 1016.00 1016.12 1016.22 1016.32 1016.44 1016.56 1016.69 1016.82 1016.93 1017.00 1017.02 1016.97 1016.86 1016.70 1016.50
1011.96 1011.99 1012.05 1012.15 1012.26 1012.37 1012.46 1012.54 1012.59 1012.62 1012.65 1012.69 1012.77 1012.90 1013.09 1013.34 1013.63 1013.95 1014.28 1014.59 1014.88 1015.12 1015.32 1015.48 1015.61 1015.74 1015.87 1016.02 1016.18 1016.36 1016.53 1016.69 1016.80 1016.86 1016.85 1016.78 1016.64 1016.46
1011.65 1011.63 1011.65 1011.70 1011.76 1011.82 1011.86 1011.90 1011.92 1011.93 1011.95 1011.99 1012.07 1012.20 1012.39 1012.63 1012.92 1013.24 1013.57 1013.89 1014.18 1014.43 1014.65 1014.84 1015.02 1015.19 1015.37 1015.56 1015.77 1015.99 1016.21 1016.40 1016.55 1016.64 1016.66 1016.60 1016.48 1016.30
1011.47 1011.42 1011.39 1011.38 1011.38 1011.38 1011.37 1011.35 1011.31 1011.28 1011.26 1011.26 1011.31 1011.41 1011.57 1011.79 1012.06 1012.37 1012.69 1013.01 1013.32 1013.61 1013.87 1014.11 1014.34 1014.57 1014.81 1015.06 1015.32 1015.58 1015.84 1016.06 1016.23 1016.34 1016.37 1016.33 1016.21 1016.05
1011.42 1011.32 1011.24 1011.17 1011.11 1011.04 1010.96 1010.87 1010.77 1010.68 1010.59 1010.53 1010.52 1010.57 1010.68 1010.86 1011.10 1011.38 1011.69 1012.03 1012.36 1012.69 1013.01 1013.31 1013.61 1013.91 1014.22 1014.52 1014.83 1015.13 1015.41 1015.65 1015.83 1015.95 1015.99 1015.96 1015.85 1015.70
1011.44 1011.29 1011.16 1011.03 1010.90 1010.77 1010.63 1010.47 1010.30 1010.14 1009.98 1009.85 1009.77 1009.76 1009.81 1009.93 1010.13 1010.39 1010.69 1011.04 1011.40 1011.78 1012.15 1012.53 1012.90 1013.26 1013.62 1013.97 1014.31 1014.63 1014.92 1015.16 1015.35 1015.47 1015.52 1015.49 1015.40 1015.26
1011.51 1011.31 1011.12 1010.93 1010.74 1010.55 1010.35 1010.13 1009.91 1009.68 1009.46 1009.28 1009.14 1009.06 1009.06 1009.14 1009.29 1009.53 1009.83 1010.18 1010.58 1011.00 1011.42 1011.85 1012.27 1012.68 1013.07 1013.44 1013.79 1014.10 1014.37 1014.60 1014.78 1014.89 1014.94 1014.93 1014.87 1014.76
1011.59 1011.33 1011.07 1010.83 1010.59 1010.35 1010.10 1009.84 1009.58 1009.32 1009.07 1008.85 1008.68 1008.57 1008.53 1008.58 1008.71 1008.94 1009.24 1009.60 1010.02 1010.46 1010.92 1011.38 1011.82 1012.24 1012.63 1012.98 1013.29 1013.57 1013.80 1013.99 1014.13 1014.23 1014.28 1014.29 1014.26 1014.20
1011.65 1011.32 1011.00 1010.70 1010.41 1010.13 1009.85 1009.58 1009.31 1009.05 1008.81 1008.59 1008.42 1008.31 1008.28 1008.32 1008.46 1008.68 1008.99 1009.36 1009.79 1010.25 1010.71 1011.17 1011.60 1011.99 1012.33 1012.62 1012.86 1013.06 1013.22 1013.34 1013.44 1013.51 1013.56 1013.59 1013.61 1013.61
1011.65 1011.26 1010.87 1010.51 1010.18 1009.87 1009.59 1009.33 1009.09 1008.86 1008.66 1008.50 1008.37 1008.30 1008.29 1008.37 1008.53 1008.77 1009.09 1009.47 1009.90 1010.35 1010.79 1011.21 1011.59 1011.91 1012.17 1012.36 1012.50 1012.59 1012.65 1012.69 1012.73 1012.78 1012.83 1012.89 1012.95 1013.02
1011.59 1011.12 1010.67 1010.26 1009.89 1009.57 1009.30 1009.07 1008.88 1008.72 1008.59 1008.50 1008.45 1008.45 1008.51 1008.64 1008.84 1009.11 1009.45 1009.83 1010.25 1010.67 1011.07 1011.43 1011.73 1011.96 1012.11 1012.18 1012.20 1012.17 1012.13 1012.08 1012.06 1012.07 1012.13 1012.22 1012.34 1012.49
1011.46 1010.92 1010.41 1009.95 1009.55 1009.23 1008.98 1008.79 1008.66 1008.58 1008.55 1008.55 1008.60 1008.68 1008.82 1009.01 1009.26 1009.56 1009.91 1010.29 1010.68 1011.07 1011.42 1011.71 1011.92 1012.04 1012.08 1012.04 1011.93 1011.80 1011.65 1011.53 1011.46 1011.45 1011.51 1011.64 1011.83 1012.05
1011.27 1010.67 1010.11 1009.61 1009.20 1008.87 1008.64 1008.50 1008.44 1008.44 1008.49 1008.58 1008.72 1008.88 1009.09 1009.33 1009.61 1009.93 1010.29 1010.66 1011.02 1011.36 1011.66 1011.88 1012.01 1012.05 1011.99 1011.85 1011.66 1011.44 1011.23 1011.06 1010.96 1010.95 1011.03 1011.21 1011.45 1011.75
1011.06 1010.43 1009.83 1009.31 1008.89 1008.57 1008.36 1008.26 1008.24 1008.30 1008.41 1008.57 1008.76 1008.98 1009.22 1009.49 1009.78 1010.10 1010.43 1010.77 1011.10 1011.40 1011.64 1011.81 1011.89 1011.87 1011.76 1011.57 1011.34 1011.08 1010.85 1010.68 1010.59 1010.60 1010.72 1010.94 1011.25 1011.60
1010.90 1010.25 1009.65 1009.12 1008.70 1008.39 1008.20 1008.12 1008.13 1008.21 1008.35 1008.53 1008.73 1008.95 1009.18 1009.43 1009.70 1009.98 1010.27 1010.57 1010.85 1011.11 1011.31 1011.45 1011.50 1011.46 1011.35 1011.16 1010.94 1010.71 1010.50 1010.36 1010.32 1010.38 1010.55 1010.83 1011.19 1011.60
1010.83 1010.21 1009.62 1009.12 1008.71 1008.42 1008.23 1008.16 1008.16 1008.24 1008.36 1008.51 1008.67 1008.84 1009.02 1009.20 1009.40 1009.61 1009.83 1010.06 1010.29 1010.51 1010.68 1010.80 1010.86 1010.84 1010.76 1010.63 1010.46 1010.30 1010.16 1010.10 1010.12 1010.25 1010.49 1010.82 1011.23 1011.67
1010.91 1010.34 1009.80 1009.33 1008.96 1008.68 1008.51 1008.42 1008.41 1008.44 1008.51 1008.59 1008.67 1008.74 1008.81 1008.89 1008.98 1009.09 1009.21 1009.36 1009.53 1009.69 1009.84 1009.96 1010.04 1010.07 1010.05 1010.00 1009.92 1009.85 1009.82 1009.85 1009.96 1010.16 1010.46 1010.84 1011.28 1011.75
1011.15 1010.65 1010.18 1009.78 1009.45 1009.20 1009.03 1008.93 1008.88 1008.85 1008.84 1008.82 1008.78 1008.74 1008.68 1008.62 1008.57 1008.55 1008.57 1008.62 1008.71 1008.82 1008.94 1009.06 1009.17 1009.25 1009.30 1009.33 1009.35 1009.38 1009.45 1009.57 1009.77 1010.04 1010.39 1010.80 1011.26 1011.72
1011.52 1011.10 1010.72 1010.39 1010.12 1009.91 1009.76 1009.64 1009.55 1009.46 1009.36 1009.23 1009.07 1008.89 1008.69 1008.49 1008.30 1008.15 1008.04 1007.99 1008.00 1008.05 1008.13 1008.24 1008.36 1008.47 1008.58 1008.68 1008.78 1008.90 1009.05 1009.24 1009.50 1009.82 1010.20 1010.62 1011.07 1011.52
Thickness
5743 5741 5739 5740 5739 5738 5736 5732 5726 5721 5722 5723 5723 5723 5720 5717 5713 5711 5709 5706 5704 5702 5700 5699 5698 5697 5697 5696 5696 5695 5694 5694 5693 5692 5691 5690 5688 5687
5738 5736 5735 5737 5736 5735 5734 5731 5728 5723 5719 5721 5718 5719 5715 5714 5709 5707 5705 5701 5699 5697 5695 5693 5692 5691 5690 5689 5688 5688 5687 5686 5686 5685 5684 5683 5682 5680
5735 5733 5731 5730 5731 5731 5729 5727 5725 5722 5715 5715 5715 5712 5708 5706 5704 5702 5701 5698 5696 5692 5689 5688 5686 5685 5684 5682 5681 5680 5680 5679 5678 5677 5676 5675 5674 5673
5731 5729 5727 5727 5724 5724 5723 5722 5720 5718 5713 5708 5707 5706 5702 5701 5699 5696 5696 5694 5691 5686 5684 5682 5681 5679 5678 5676 5675 5674 5673 5672 5671 5670 5669 5668 5667 5665
5727 5725 5723 5721 5719 5719 5717 5717 5716 5715 5711 5707 5703 5700 5698 5696 5693 5691 5690 5687 5686 5682 5679 5677 5675 5674 5672 5670 5669 5668 5666 5665 5664 5663 5661 5661 5660 5658
5723 5721 5720 5717 5715 5712 5711 5710 5709 5707 5705 5702 5699 5696 5693 5691 5688 5686 5683 5681 5680 5679 5675 5673 5670 5668 5667 5665 5663 5661 5660 5658 5657 5655 5654 5653 5652 5651
5718 5717 5715 5712 5709 5707 5707 5705 5703 5701 5700 5697 5694 5692 5688 5684 5683 5682 5679 5677 5675 5674 5672 5670 5667 5665 5662 5659 5657 5655 5653 5652 5650 5649 5648 5647 5646 5645
5713 5711 5709 5706 5702 5699 5697 5695 5693 5693 5692 5690 5689 5685 5682 5680 5678 5677 5674 5671 5669 5669 5667 5665 5663 5661 5659 5656 5652 5649 5647 5646 5644 5643 5642 5641 5639 5638
5708 5705 5705 5704 5699 5696 5692 5688 5687 5684 5682 5682 5681 5680 5678 5676 5672 5670 5668 5666 5664 5663 5660 5658 5658 5655 5653 5651 5647 5644 5642 5640 5638 5637 5636 5635 5633 5632
5703 5701 5698 5696 5695 5691 5689 5687 5685 5682 5679 5677 5676 5675 5674 5671 5668 5665 5662 5660 5659 5658 5655 5652 5652 5650 5649 5645 5641 5638 5636 5634 5633 5631 5630 5629 5627 5626
5699 5696 5693 5690 5686 5682 5681 5680 5678 5677 5674 5671 5669 5667 5664 5662 5660 5659 5658 5656 5654 5654 5653 5649 5647 5645 5643 5641 5637 5633 5631 5629 5627 5625 5624 5623 5621 5620
5693 5691 5686 5683 5678 5674 5674 5673 5670 5670 5669 5667 5663 5660 5658 5656 5653 5652 5653 5651 5651 5649 5649 5645 5643 5641 5637 5637 5635 5631 5627 5624 5622 5621 5619 5618 5616 5616
5688 5686 5684 5675 5671 5667 5665 5666 5664 5662 5662 5660 5659 5657 5655 5653 5650 5648 5647 5646 5646 5646 5645 5640 5639 5637 5635 5632 5631 5629 5626 5624 5620 5617 5615 5613 5611 5611
5681 5681 5677 5669 5664 5661 5659 5658 5655 5653 5655 5654 5653 5652 5650 5649 5647 5645 5642 5640 5639 5639 5637 5635 5633 5631 5629 5627 5625 5625 5623 5620 5618 5616 5613 5609 5607 5605
5676 5672 5667 5661 5658 5656 5653 5650 5648 5649 5649 5648 5647 5646 5645 5643 5640 5637 5635 5632 5631 5631 5631 5628 5626 5626 5624 5622 5622 5620 5618 5616 5614 5612 5610 5608 5606 5603
5667 5664 5658 5655 5652 5650 5648 5646 5644 5645 5644 5642 5642 5641 5639 5637 5633 5632 5630 5628 5626 5626 5625 5622 5620 5619 5617 5617 5617 5616 5615 5613 5611 5609 5607 5605 5603 5601
5658 5657 5656 5653 5650 5648 5647 5645 5642 5640 5637 5635 5634 5632 5631 5629 5628 5626 5623 5622 5620 5620 5619 5618 5616 5613 5612 5611 5610 5611 5611 5609 5608 5606 5601 5601 5600 5598
5649 5651 5650 5649 5647 5644 5641 5639 5637 5635 5632 5630 5627 5625 5624 5622 5621 5620 5618 5616 5615 5615 5615 5613 5610 5606 5604 5605 5603 5605 5606 5605 5603 5600 5598 5596 5595 5594
5644 5646 5645 5643 5641 5638 5635 5632 5630 5629 5626 5623 5621 5619 5617 5616 5615 5613 5612 5610 5609 5609 5608 5607 5604 5601 5599 5600 5602 5599 5600 5600 5597 5595 5593 5593 5592 5591
5640 5640 5638 5637 5635 5632 5629 5626 5624 5622 5619 5617 5615 5613 5611 5609 5608 5607 5605 5603 5602 5601 5600 5600 5598 5596 5595 5597 5597 5596 5593 5594 5593 5591 5590 5588 5587 5583
5636 5634 5632 5630 5628 5625 5622 5619 5617 5615 5612 5610 5609 5607 5606 5604 5602 5601 5600 5596 5594 5595 5595 5595 5594 5591 5591 5590 5589 5590 5590 5585 5585 5585 5584 5582 5581 5580
5630 5627 5625 5623 5620 5617 5614 5612 5610 5608 5606 5604 5602 5600 5598 5597 5596 5594 5593 5591 5590 5590 5590 5590 5589 5587 5585 5584 5584 5584 5583 5581 5577 5576 5575 5575 5576 5576
5624 5621 5619 5616 5613 5610 5608 5605 5603 5602 5599 5597 5595 5593 5591 5590 5589 5588 5586 5584 5583 5583 5583 5582 5582 5580 5579 5579 5577 5577 5577 5575 5574 5572 5571 5568 5567 5565